Powrót do katalogu

STARLINK-31913

AktywnyŁącznośćVLEO
NORAD 59667·PAYLOAD·🇺🇸 United States

Wystrzelony May 6, 2024 z Cape Canaveral Space Force Station

Loading…

Następne Przeloty (najbliższe 24 godziny)

TLE

ŚwieżeSource: CelesTrak SupGP

Epoka: Sep 15, 2026, 02:39 UTC

1 59667C 24084P   26258.11090278 -.00022282  00000+0 -80703-3 0  2588
2 59667  43.0013  48.3862 0001795 274.7374 131.6767 15.27590118    14

Śledź STARLINK-31913 w czasie rzeczywistym z AllMySat

Download on the App Store